Location: Blankensee
(53.5126°N, 14.3055°E)
Time: 06:21:10
(UTC+00:00)

Meteor 1-28 Rocket - Pass Details

Date: 08 August 2020
Orbit: 502 x 524 km, 97.3° (Epoch: 24 September)

Event Time Altitude Azimuth Distance (km) Brightness Sun altitude
Exits shadow 02:20:38 - 191° (S) 1,943 5.6 -9.2°
Reaches altitude 10° 02:21:06 10° 193° (SSW) 1,755 5.4 -9.2°
Maximum altitude 02:24:39 38° 263° (W) 819 3.8 -8.8°
Drops below altitude 10° 02:28:15 10° 332° (NNW) 1,777 6.1 -8.4°
Sets 02:30:29 0° 341° (NNW) 2,672 7.1 -8.1°
